Regional Weather Roundup
Issued by NWS

Home | Current Version | Previous Version | Graphics & Text | Print | Product List | Glossary Off
Versions: 1 2 3 4 5 6 7 8 9 10 11 12 13 14 15 16 17 18 19 20 21 22 23 24 25 26 27 28 29 30 31 32 33 34 35 36 37 38 39 40 41 42 43 44 45 46 47 48 49 50

000
ASUS43 KMPX 281401
RWRMN
WEATHER ROUNDUP FOR MINNESOTA
NATIONAL WEATHER SERVICE TWIN CITIES/CHANHASSEN MN
800 AM CST WED JAN 28 2015


NOTE: "FAIR" INDICATES FEW OR NO CLOUDS BELOW 12,000 FEET WITH NO
SIGNIFICANT WEATHER AND/OR OBSTRUCTIONS TO VISIBILITY. N/A MEANS
CURRENT SKY AND/OR WEATHER CONDITIONS ARE NOT AVAILABLE.

MNZ060>063-068>070-281500-
   Twin Cities Metro

CITY           SKY/WX    TMP DP  RH WIND       PRES   REMARKS
TWIN CITIES    CLOUDY    28  24  85 SE16      30.00F WCI  16
ST PAUL        CLOUDY    28  25  88 S14       30.02F WCI  17
CRYSTAL        CLOUDY    30  26  85 SE15G21   29.97F FOG     WCI  19
BLAINE         CLOUDY    30  28  93 SE10      29.99F WCI  21
LAKEVILLE      CLOUDY    27  25  93 SE14      29.99S FOG     WCI  15
EDEN PRAIRIE   CLOUDY    29  26  89 S15       29.98S WCI  18
SOUTH ST PAUL  CLOUDY    28  26  89 SE8       30.02S WCI  20
LAKE ELMO      CLOUDY    28  27  93 SE13G18   30.02F FOG     WCI  18
$$
MNZ001>005-007-008-013>017-022>024-027-028-281500-
   Northwest Minnesota

CITY           SKY/WX    TMP DP  RH WIND       PRES   REMARKS
BEMIDJI        CLOUDY    30  29  96 SE8       29.85S FOG     WCI  22
HALLOCK        CLOUDY    32  30  93 E8        29.80F FOG     WCI  25
ROSEAU         CLOUDY    30  27  86 E6        29.84F FOG     WCI  24
WARROAD        CLOUDY    28  25  86 E8        29.86F FOG     WCI  20
THIEF RVR FALL CLOUDY    34  30  86 SE9       29.81S WCI  26
CROOKSTON      CLOUDY    34  30  86 S16       29.82R WCI  23
FOSSTON        CLOUDY    30  28  93 SE8       29.81F WCI  23
DETROIT LAKES  CLOUDY    32  32 100 S15       29.82F WCI  22
MOORHEAD       CLOUDY    34  34 100 S14       29.81F WCI  24
PARK RAPIDS    CLOUDY    31  29  92 SE15      29.84F FOG     WCI  20
MAHNOMEN       CLOUDY    32  30  93 S10       29.81S WCI  24
$$
MNZ006-009>011-018-025>026-281500-
   North Central Minnesota

CITY           SKY/WX    TMP DP  RH WIND       PRES   REMARKS
BAUDETTE       CLOUDY    28  26  92 E9        29.86F FOG     WCI  19
FLAG ISLAND    CLOUDY    28  27  93 SE8       29.87F FOG     WCI  20
INTL FALLS     CLOUDY    27  23  85 SE7       29.91F WCI  19
WASKISH        CLOUDY    30  28  93 SE8       29.87R FOG     WCI  23
BIG FORK       CLOUDY    28  25  86 S9        29.90F FOG     WCI  20
LONGVILLE      CLOUDY    28  27  93 SE8       29.89F FOG     WCI  20
GRAND RAPIDS   CLOUDY    27  23  86 SE13G18   29.90F WCI  16
CRANE LAKE     CLOUDY    23  21  93 CALM      29.97S
ORR            CLOUDY    25  21  86 SE7       29.91S WCI  17
COOK           CLOUDY    23  21  93 SE9       29.94S WCI  13
WALKER         CLOUDY    29  28  96 SE9       29.86F FOG     WCI  21
$$
MNZ012-019>021-037-281500-
   Northeast Minnesota

CITY           SKY/WX    TMP DP  RH WIND       PRES   REMARKS
DULUTH         CLOUDY    23  20  88 SE9       29.97F FOG     WCI  13
ELY            CLOUDY    25  21  86 S5        29.95S WCI  19
HIBBING        CLOUDY    25  21  85 SE9       29.94F WCI  15
EVELETH        CLOUDY    23  21  93 SE10      29.96F WCI  12
DULUTH HARBOR  CLOUDY    27  23  86 CALM      30.04S
TWO HARBORS    CLOUDY    27  21  80 S5        29.99F WCI  21
SILVER BAY     CLOUDY    27  23  86 S3        29.99F
GRAND MARAIS     N/A     31  25  78 SW7       30.06F WCI  24
G MARAIS ARPRT   N/A     23  19  86 S5        30.00S FOG     WCI  17
$$
MNZ029>031-032-039>041-046>048-054>057-064-281500-
   West Central Minnesota

CITY           SKY/WX    TMP DP  RH WIND       PRES   REMARKS
FERGUS FALLS   CLOUDY    32  30  93 S15G24    29.85F WCI  22
WHEATON        PTCLDY    28  28 100 SE15G22   29.83S WCI  17
MORRIS         CLOUDY    32  30  93 SE20      29.83S FOG     WCI  20
ALEXANDRIA     CLOUDY    31  29  92 S18       29.85F FOG     WCI  19
ELBOW LAKE     CLOUDY    32  30  94 SE18      29.82F WCI  20
WADENA         CLOUDY    30  28  93 SE12      29.86  FOG     WCI  21
GLENWOOD       CLOUDY    30  30 100 SE12      29.87F FOG     WCI  21
APPLETON       CLOUDY    34  30  86 SE13G20   29.84S WCI  25
BENSON         CLOUDY    34  30  86 S16G23    29.86S FOG     WCI  23
ORTONVILLE     MOCLDY    30  28  93 SE14G20   29.82R FOG     WCI  20
MADISON        MOCLDY    36  34  93 SE14      29.83R FOG
WILLMAR        CLOUDY    34  30  86 SE16G24   29.89F FOG     WCI  23
$$
MNZ033>034-036-042>043-049>051-058-059-281500-
   Central Minnesota

CITY           SKY/WX    TMP DP  RH WIND       PRES   REMARKS
ST CLOUD       CLOUDY    29  27  92 SE18      29.92F FOG     WCI  16
SAUK CENTRE    CLOUDY    30  30  98 SE15      29.89S FOG     WCI  19
PAYNESVILLE    CLOUDY    28  28 100 E13       29.90F FOG     WCI  18
AITKIN         CLOUDY    30  25  80 SE8G16    29.92S HAZE    WCI  23
PINE RIVER     CLOUDY    28  28 100 S14       29.92F FOG     WCI  17
BRAINERD       CLOUDY    29  27  92 SE10      29.91F FOG     WCI  20
STAPLES        CLOUDY    28  28 100 SE8       29.87F FOG     WCI  20
LONG PRAIRIE   CLOUDY    30  30 100 SE14      29.88F FOG     WCI  20
LITTLE FALLS   CLOUDY    30  28  93 SE12G17   29.92S FOG     WCI  21
LITCHFIELD     CLOUDY    30  30 100 SE12G22   29.91F FOG     WCI  21
BUFFALO        CLOUDY    30  28  90 SE12      29.96F FOG     WCI  20
MAPLE LAKE     CLOUDY    31  30  96 SE12G18   29.94F FOG     WCI  22
$$
MNZ037-044-045-052-053-281500-
   East Central Minnesota

CITY           SKY/WX    TMP DP  RH WIND       PRES   REMARKS
PRINCETON      CLOUDY    30  27  86 SE10      29.96F WCI  21
MORA           CLOUDY    27  23  86 SE7       29.99S WCI  19
CAMBRIDGE      CLOUDY    30  21  69 SE7       29.96F WCI  23
RUSH CITY      CLOUDY    27  24  89 SE8       30.00S WCI  18
MOOSE LAKE     CLOUDY    27  23  86 S5        29.97S WCI  21
HINCKLEY       CLOUDY    28  25  86 SE7       30.00R WCI  21
CLOQUET        CLOUDY    23  21  93 SE8       29.97F WCI  14
MCGREGOR       CLOUDY    28  27  93 SE10G16   29.95S WCI  19
$$
MNZ071>073-080-081-089-090-097-098-281500-
   Southwest Minnesota

CITY           SKY/WX    TMP DP  RH WIND       PRES   REMARKS
MONTEVIDEO     CLOUDY    32  32 100 S12G20    29.85F FOG     WCI  23
GRANITE FALLS  CLOUDY    32  30  93 SE18      29.86F FOG     WCI  20
CANBY          PTCLDY    32  31  96 SE5       29.82R FOG     WCI  27
MARSHALL       CLOUDY    32  27  80 S14       29.83F WCI  22
REDWOOD FALLS  CLOUDY    33  30  88 SE22G28   29.87F FOG     WCI  21
OLIVIA         CLOUDY    30  30 100 SE15G24   29.87F FOG     WCI  19
PIPESTONE      PTCLDY    32  30  93 S20G25    29.77F WCI  20
WINDOM         CLOUDY    30  30 100 SE17      29.86F FOG     WCI  18
WORTHINGTON    CLOUDY    30  27  86 S20G25    29.85F WCI  18
JACKSON        CLOUDY    32  30  93 S18       29.88F FOG     WCI  20
TRACY          CLOUDY    32  31  97 S15G24    29.83R FOG     WCI  22
SLAYTON        CLOUDY    31  30  96 SE21G28   29.81F FOG     WCI  18
$$
MNZ065>067-074>077-082>085-091>093-281500-
   South Central Minnesota

CITY           SKY/WX    TMP DP  RH WIND       PRES   REMARKS
MANKATO        CLOUDY    30  25  80 SE18      29.95F WCI  18
NEW ULM        CLOUDY    30  30 100 SE17      29.91F FOG     WCI  18
ST JAMES       CLOUDY    32  30  93 SE18G25   29.91F FOG     WCI  20
FAIRMONT       CLOUDY    30  27  86 S23G30    29.91F WCI  17
GLENCOE        CLOUDY    32  31  96 SE13      29.93F FOG     WCI  22
FARIBAULT      CLOUDY    28  27  93 SE12G18   29.99F FOG     WCI  18
OWATONNA       CLOUDY    27  27 100 SE17      29.98S FOG     WCI  14
WASECA         CLOUDY    30  28  93 SE15      29.99F FOG     WCI  19
ALBERT LEA     LGT SNOW  27  27 100 SE17G26   29.97F VSB 3/4 WCI  14
$$
MNZ078>079-086>088-094>096-281500-
   Southeast Minnesota

CITY           SKY/WX    TMP DP  RH WIND       PRES   REMARKS
ROCHESTER      CLOUDY    24  22  91 SE15      30.02F FOG     WCI  11
RED WING       CLOUDY    27  23  86 SE10      30.04F FOG     WCI  17
STANTON        CLOUDY    28  25  86 SE7       30.00S WCI  21
DODGE CENTER   FOG       25  25 100 SE21      29.99F VSB 3/4 WCI  10
WINONA         CLOUDY    28  25  86 SE10      30.11F FOG     WCI  19
AUSTIN         FOG       27  25  93 SE13      30.01F VSB 1   WCI  16
PRESTON        FOG       23  22  96 S14G21    30.05S VSB 1/2 WCI  10
$$
ABBREVIATIONS USED IN REMARKS
   TC - TEMPERATURES IN CELSIUS
  WCI - WIND CHILL INDEX
   HX - HEAT INDEX
  VSB - VISIBILITY
$$


USA.gov is the U.S. government's official web portal to all federal, state and local government web resources and services.